When you browse on this site, cookies collect data to enhance your experience and personalize the content and advertising you see.
Visit our Privacy Policy to learn more. By continuing to use the site, you agree to this use of cookies and data.
  • In Portugal
  • List of Countries
  • For 7 days
  • Water Temperature
  • Satellite Maps
  • Weather Map
  • Weather Widgets
  • user-avatar
    Login

    Hourly Weather Solden

    Today, 20 March, Wednesday

    Time Temperature Precipitation Wind Pressure Humidity
    00:00 -13°C° 0 mm 2 mps 583 mmHg 74%
    01:00 -14°C° 0 mm 2 mps 583 mmHg 74%
    02:00 -14°C° 0 mm 2 mps 583 mmHg 73%
    03:00 -14°C° 0 mm 2 mps 583 mmHg 72%
    04:00 -14°C° 0 mm 2 mps 583 mmHg 71%
    05:00 -14°C° 0 mm 2 mps 583 mmHg 67%
    06:00 -14°C° 0 mm 2 mps 584 mmHg 64%
    07:00 -14°C° 0 mm 2 mps 584 mmHg 60%
    08:00 -10°C° 0 mm 2 mps 585 mmHg 52%
    09:00 -7°C° 0 mm 2 mps 587 mmHg 45%
    10:00 -2°C° 0 mm 1 mps 588 mmHg 37%
    11:00 -1°C° 0 mm 1 mps 589 mmHg 37%
    12:00 +1°C° 0 mm 1 mps 589 mmHg 38%
    13:00 +2°C° 0 mm 1 mps 590 mmHg 38%
    14:00 +2°C° 0 mm 1 mps 590 mmHg 40%
    15:00 +2°C° 0 mm 1 mps 589 mmHg 42%
    16:00 +1°C° 0 mm 1 mps 589 mmHg 44%
    17:00 -3°C° 0 mm 2 mps 588 mmHg 51%
    18:00 -5°C° 0 mm 2 mps 587 mmHg 59%
    19:00 -8°C° 0 mm 2 mps 586 mmHg 66%
    20:00 -8°C° 0 mm 2 mps 587 mmHg 65%
    21:00 -9°C° 0 mm 2 mps 587 mmHg 65%
    22:00 -10°C° 0 mm 2 mps 587 mmHg 64%
    23:00 -9°C° 0 mm 1 mps 587 mmHg 60%

    Tomorrow, 21 March, Thursday

    Time Temperature Precipitation Wind Pressure Humidity
    00:00 -9°C° 0 mm 1 mps 587 mmHg 57%
    01:00 -9°C° 0 mm 1 mps 587 mmHg 53%
    02:00 -9°C° 0 mm 1 mps 587 mmHg 51%
    03:00 -9°C° 0 mm 1 mps 586 mmHg 49%
    04:00 -9°C° 0 mm 1 mps 586 mmHg 46%
    05:00 -8°C° 0 mm 1 mps 586 mmHg 45%
    06:00 -8°C° 0 mm 1 mps 587 mmHg 44%
    07:00 -8°C° 0 mm 1 mps 587 mmHg 43%
    08:00 -4°C° 0 mm 1 mps 588 mmHg 42%
    09:00 0°C° 0 mm 1 mps 590 mmHg 40%
    10:00 +2°C° 0 mm 0 mps 591 mmHg 39%
    11:00 +4°C° 0 mm 1 mps 591 mmHg 40%
    12:00 +5°C° 0 mm 1 mps 591 mmHg 42%
    13:00 +6°C° 0 mm 1 mps 592 mmHg 43%
    14:00 +6°C° 0 mm 1 mps 591 mmHg 42%
    15:00 +6°C° 0 mm 1 mps 591 mmHg 41%
    16:00 +5°C° 0 mm 1 mps 590 mmHg 40%
    17:00 +3°C° 0 mm 1 mps 589 mmHg 41%
    18:00 0°C° 0 mm 1 mps 588 mmHg 43%
    19:00 -2°C° 0 mm 1 mps 587 mmHg 45%
    20:00 -3°C° 0 mm 1 mps 587 mmHg 44%
    21:00 -3°C° 0 mm 1 mps 587 mmHg 44%
    22:00 -4°C° 0 mm 1 mps 587 mmHg 44%
    23:00 -4°C° 0 mm 1 mps 587 mmHg 45%

    Day after tomorrow, 22 March, Friday

    Time Temperature Precipitation Wind Pressure Humidity
    00:00 -4°C° 0 mm 1 mps 587 mmHg 45%
    01:00 -4°C° 0 mm 1 mps 587 mmHg 45%
    02:00 -4°C° 0 mm 1 mps 587 mmHg 46%
    03:00 -4°C° 0 mm 1 mps 587 mmHg 46%
    04:00 -4°C° 0 mm 1 mps 587 mmHg 46%
    05:00 -4°C° 0 mm 1 mps 587 mmHg 46%
    06:00 -4°C° 0 mm 1 mps 587 mmHg 45%
    07:00 -4°C° 0 mm 1 mps 587 mmHg 45%
    08:00 -1°C° 0 mm 1 mps 588 mmHg 44%
    09:00 +2°C° 0 mm 0 mps 589 mmHg 44%
    10:00 +5°C° 0 mm 0 mps 591 mmHg 43%
    11:00 +6°C° 0 mm 0 mps 591 mmHg 43%
    12:00 +7°C° 0 mm 1 mps 591 mmHg 43%
    13:00 +8°C° 0 mm 1 mps 591 mmHg 43%
    14:00 +8°C° 0 mm 1 mps 591 mmHg 43%
    15:00 +8°C° 0 mm 1 mps 590 mmHg 43%
    16:00 +7°C° 0 mm 1 mps 590 mmHg 44%
    17:00 +5°C° 0 mm 1 mps 589 mmHg 48%
    18:00 +3°C° 0 mm 1 mps 588 mmHg 53%
    19:00 -1°C° 0 mm 0 mps 587 mmHg 57%
    20:00 0°C° 0 mm 1 mps 587 mmHg 58%
    21:00 -1°C° 0 mm 1 mps 587 mmHg 58%
    22:00 -1°C° 0 mm 1 mps 587 mmHg 59%
    23:00 -1°C° 0 mm 1 mps 587 mmHg 57%

    23 March, Saturday

    Time Temperature Precipitation Wind Pressure Humidity
    00:00 -2°C° 0 mm 1 mps 587 mmHg 56%
    01:00 -2°C° 0 mm 1 mps 586 mmHg 54%
    02:00 -2°C° 0 mm 1 mps 586 mmHg 52%
    03:00 -2°C° 0 mm 1 mps 586 mmHg 51%
    04:00 -4°C° 0 mm 2 mps 586 mmHg 49%
    05:00 -4°C° 0 mm 2 mps 586 mmHg 49%
    06:00 -4°C° 0 mm 2 mps 586 mmHg 49%
    07:00 -4°C° 0 mm 2 mps 586 mmHg 49%
    08:00 +1°C° 0 mm 1 mps 587 mmHg 48%
    09:00 +4°C° 0 mm 1 mps 588 mmHg 47%
    10:00 +6°C° 0 mm 1 mps 590 mmHg 46%
    11:00 +8°C° 0 mm 1 mps 590 mmHg 44%
    12:00 +9°C° 0 mm 1 mps 590 mmHg 42%
    13:00 +10°C° 0 mm 1 mps 590 mmHg 40%
    14:00 +9°C° 0 mm 1 mps 590 mmHg 40%
    15:00 +9°C° 0 mm 1 mps 590 mmHg 40%
    16:00 +8°C° 0 mm 1 mps 589 mmHg 39%
    17:00 +5°C° 0 mm 0 mps 588 mmHg 45%
    18:00 +3°C° 0 mm 0 mps 587 mmHg 51%
    19:00 0°C° 0 mm 0 mps 586 mmHg 57%
    20:00 0°C° 0 mm 0 mps 586 mmHg 60%
    21:00 0°C° 0 mm 1 mps 586 mmHg 62%
    22:00 -1°C° 0 mm 1 mps 586 mmHg 65%
    23:00 -1°C° 0 mm 1 mps 585 mmHg 64%

    24 March, Sunday

    Time Temperature Precipitation Wind Pressure Humidity
    00:00 -1°C° 0 mm 1 mps 585 mmHg 64%
    01:00 -1°C° 0 mm 1 mps 585 mmHg 64%
    02:00 -2°C° 0 mm 1 mps 585 mmHg 63%
    03:00 -2°C° 0 mm 1 mps 584 mmHg 63%
    04:00 -2°C° 0 mm 1 mps 584 mmHg 63%
    05:00 -2°C° 0 mm 1 mps 584 mmHg 62%
    06:00 -2°C° 0 mm 1 mps 584 mmHg 61%
    07:00 -2°C° 0 mm 1 mps 584 mmHg 60%
    08:00 +1°C° 0 mm 1 mps 585 mmHg 54%
    09:00 +4°C° 0 mm 1 mps 587 mmHg 48%
    10:00 +5°C° 0 mm 0 mps 588 mmHg 42%
    11:00 +6°C° 0 mm 0 mps 588 mmHg 41%
    12:00 +7°C° 0 mm 0 mps 588 mmHg 41%
    13:00 +8°C° 0 mm 0 mps 588 mmHg 40%
    14:00 +8°C° 0 mm 1 mps 588 mmHg 42%
    15:00 +8°C° 0 mm 1 mps 587 mmHg 43%
    16:00 +8°C° 0 mm 1 mps 587 mmHg 45%
    17:00 +6°C° 0 mm 1 mps 586 mmHg 52%
    18:00 +4°C° 0 mm 1 mps 585 mmHg 60%
    19:00 +2°C° 0 mm 1 mps 585 mmHg 67%
    20:00 +1°C° 0 mm 1 mps 585 mmHg 71%
    21:00 +1°C° 0 mm 1 mps 585 mmHg 75%
    22:00 -2°C° 0 mm 2 mps 585 mmHg 78%
    23:00 -2°C° 0 mm 2 mps 584 mmHg 80%

    25 March, Monday

    Time Temperature Precipitation Wind Pressure Humidity
    00:00 -3°C° 0 mm 2 mps 584 mmHg 81%
    01:00 -3°C° 0 mm 2 mps 584 mmHg 83%
    02:00 -4°C° 0 mm 2 mps 584 mmHg 83%
    03:00 -4°C° 0 mm 2 mps 583 mmHg 82%
    04:00 -4°C° 0 mm 2 mps 583 mmHg 82%
    05:00 -4°C° 0 mm 2 mps 583 mmHg 80%
    06:00 -4°C° 0 mm 2 mps 583 mmHg 78%
    07:00 -4°C° 0 mm 2 mps 583 mmHg 77%
    08:00 -2°C° 0 mm 2 mps 584 mmHg 69%
    09:00 +1°C° 0 mm 2 mps 585 mmHg 61%
    10:00 +3°C° 0 mm 2 mps 586 mmHg 53%
    11:00 +5°C° 0 mm 1 mps 586 mmHg 51%
    12:00 +6°C° 0 mm 1 mps 586 mmHg 48%
    13:00 +7°C° 0 mm 1 mps 586 mmHg 46%
    14:00 +6°C° 0 mm 1 mps 585 mmHg 46%
    15:00 +5°C° 0 mm 2 mps 585 mmHg 47%
    16:00 +5°C° 0 mm 2 mps 584 mmHg 47%
    17:00 +3°C° 0 mm 2 mps 583 mmHg 53%
    18:00 +1°C° 0 mm 2 mps 582 mmHg 60%
    19:00 -2°C° 0 mm 3 mps 582 mmHg 66%
    20:00 -4°C° 0 mm 3 mps 581 mmHg 68%
    21:00 -5°C° 0 mm 3 mps 581 mmHg 70%
    22:00 -5°C° 0 mm 3 mps 581 mmHg 72%
    23:00 -6°C° 0 mm 3 mps 580 mmHg 71%
    Show more